{"data":{"norad_id":53627,"epoch":"2026-05-25T00:42:01.990080Z","epoch_age_seconds":82810,"freshness":"FRESH","line1":"1 53627U 22104AR  26145.02918970 -.00000291  00000+0 -22246-6 0  9991","line2":"2 53627  53.2149 251.1375 0001254  77.7655 282.3477 15.08843711207282","mean_motion":15.08843711,"eccentricity":0.0001254,"inclination_deg":53.2149,"raan_deg":251.1375,"arg_perigee_deg":77.7655,"mean_anomaly_deg":282.3477,"bstar":-2.2246e-7,"rev_number":20728,"period_min":95.43731994917,"perigee_km":538.8645451666,"apogee_km":540.59954672332,"semimajor_km":6917.869045945,"source":"CELESTRAK","updated_at":"2026-05-25T13:38:17.480454Z"}}